Stations météo

réclame
Mon MeteoGroup
Svenska Hogarna A, Suède (2498): Température de l'air & dewpoint: 11.11.2017 23:00:00 - 17.11.2017 23:00:00 (CET)Svenska Hogarna A, Suède (2498): Vitesse du vent & gusts: 11.11.2017 23:00:00 - 17.11.2017 23:00:00 (CET)Svenska Hogarna A, Suède (2498): Direction du vent: 11.11.2017 23:00:00 - 17.11.2017 23:00:00 (CET)Svenska Hogarna A, Suède (2498): reduced air pressure: 11.11.2017 23:00:00 - 17.11.2017 23:00:00 (CET)Svenska Hogarna A, Suède (2498): visibility: 11.11.2017 23:00:00 - 17.11.2017 23:00:00 (CET)Svenska Hogarna A, Suède (2498): Quantités de précipitations: 11.11.2017 23:00:00 - 17.11.2017 23:00:00 (CET)
Date & Time tt [°C] td [°C] ff [km/h] ff [knt] fx [km/h] fx [knt] dd ppp [hPa] vv [km] rr [mm]
17.11.2017 23:00:00 6,8 3,4 37 20 48 26 SW 1004,5 21 0,0
17.11.2017 22:00:00 7,0 3,4 35 19 49 26 SW 1004,6 25 0,0
17.11.2017 21:00:00 6,9 3,1 36 20 53 29 WSW 1004,8 22 0,0
17.11.2017 20:00:00 6,8 3,1 36 19 61 33 WSW 1005,0 22 0,0
17.11.2017 19:00:00 6,9 3,0 44 24 61 33 WSW 1005,0 23 0,0
17.11.2017 18:00:00 6,8 2,7 43 23 61 33 WSW 1005,2 25 0,0
17.11.2017 17:00:00 6,6 2,1 43 23 61 33 SW 1005,6 28 0,0
17.11.2017 16:00:00 6,5 1,6 45 24 62 33 WSW 1005,5 34 0,0
17.11.2017 15:00:00 6,3 1,6 50 27 63 34 SW 1005,7 36 0,0
17.11.2017 14:00:00 6,4 0,5 45 24 59 32 WSW 1005,6 35 0,0
17.11.2017 13:00:00 6,2 0,7 40 22 61 33 WSW 1006,2 35 0,0
17.11.2017 12:00:00 6,0 -0,3 53 28 66 35 WSW 1006,1 30 0,0
17.11.2017 11:00:00 5,8 0,1 54 29 69 37 W 1005,8 42 0,0
17.11.2017 10:00:00 5,5 0,5 51 28 67 36 W 1004,9 45 0,0
17.11.2017 09:00:00 5,5 1,0 47 25 62 33 W 1004,5 39 0,0
17.11.2017 08:00:00 5,5 2,3 51 28 67 36 WSW 1004,1 50 0,0
17.11.2017 07:00:00 5,5 2,5 51 28 66 35 WSW 1003,4 48 0,0
17.11.2017 06:00:00 6,0 3,2 45 24 65 35 WSW 1002,9 47 0,0
17.11.2017 05:00:00 6,8 3,8 51 27 67 36 WSW 1002,8 49 0,0
17.11.2017 04:00:00 7,6 6,1 45 24 67 36 SW 1002,9 31 0,1
17.11.2017 03:00:00 7,8 6,7 51 28 66 36 SSW 1003,4 11 0,5
17.11.2017 02:00:00 7,6 6,5 50 27 64 35 SSW 1004,6 10 0,6
17.11.2017 01:00:00 7,3 6,2 45 25 66 35 S 1006,0 11 0,6
17.11.2017 00:00:00 6,9 5,8 45 25 61 33 S 1007,4 9 0,9
16.11.2017 23:00:00 6,8 5,1 43 23 58 32 S 1009,0 20 0,0
16.11.2017 22:00:00 6,2 4,0 37 20 56 30 S 1010,6 26 0,0
16.11.2017 21:00:00 6,0 3,3 42 23 55 30 SSW 1012,1 28 0,0
16.11.2017 20:00:00 6,1 3,4 31 17 45 24 SSW 1012,8 25 0,0
16.11.2017 19:00:00 6,0 3,5 32 17 41 22 SW 1013,9 28 0,0
16.11.2017 18:00:00 6,0 3,2 31 17 40 21 SSW 1014,5 27 0,0
16.11.2017 17:00:00 5,9 2,5 32 17 42 23 SSW 1015,4 32 0,0
16.11.2017 16:00:00 5,5 1,0 26 14 35 19 SSW 1016,3 48 0,0
16.11.2017 15:00:00 5,6 0,4 25 14 32 17 SSW 1017,1 50 0,0
16.11.2017 14:00:00 5,6 0,0 22 12 30 16 SW 1017,7 22 0,0
16.11.2017 13:00:00 5,1 -0,1 21 11 27 15 SW 1018,1 40 0,0
16.11.2017 12:00:00 5,0 -0,6 22 12 30 16 WSW 1018,1 37 0,0
16.11.2017 11:00:00 4,7 -0,7 23 12 36 20 W 1018,0 38 0,0
16.11.2017 10:00:00 4,1 -1,1 31 17 40 21 W 1017,9 43 0,0
16.11.2017 09:00:00 4,0 -0,8 34 18 41 22 W 1017,9 41 0,0
16.11.2017 08:00:00 3,7 -1,1 36 19 46 25 W 1017,4 50 0,0
16.11.2017 07:00:00 3,7 -1,1 39 21 49 26 W 1016,8 47 0,0
16.11.2017 06:00:00 3,7 -1,1 40 22 51 28 W 1016,5 48 0,0
16.11.2017 05:00:00 3,9 -1,1 43 23 53 29 W 1016,2 50 0,0
16.11.2017 04:00:00 4,0 -0,6 40 21 56 30 W 1015,8 47 0,0
16.11.2017 03:00:00 4,1 -0,9 45 24 54 29 W 1015,5 47 0,0
16.11.2017 02:00:00 4,2 -0,4 42 23 56 30 W 1015,1 48 0,0
16.11.2017 01:00:00 4,5 0,1 42 23 58 31 W 1014,5 50 0,0
16.11.2017 00:00:00 4,5 -0,1 47 26 61 33 W 1013,8 44 0,0
15.11.2017 23:00:00 4,6 0,2 47 26 61 33 W 1013,4 48 0,0
15.11.2017 22:00:00 4,3 0,3 49 26 58 31 W 1012,8 49 0,0
15.11.2017 21:00:00 4,3 0,4 46 25 61 33 W 1012,3 36 0,0
15.11.2017 20:00:00 4,6 0,9 52 28 64 34 W 1011,6 50 0,0
15.11.2017 19:00:00 4,7 1,0 51 28 64 35 W 1010,9 48 0,0
15.11.2017 18:00:00 4,5 1,5 51 28 66 36 W 1010,0 43 0,0
15.11.2017 17:00:00 4,6 1,8 52 28 68 37 W 1009,2 50 0,0
15.11.2017 16:00:00 5,0 1,8 51 28 69 37 W 1008,4 46 0,0
15.11.2017 15:00:00 5,4 3,4 38 21 50 27 WSW 1007,7 29 0,0
15.11.2017 14:00:00 5,0 3,5 37 20 53 29 WSW 1008,3 16 0,4
15.11.2017 13:00:00 4,6 2,1 41 22 54 29 WSW 1008,4 43 0,0
15.11.2017 12:00:00 5,5 2,3 31 17 40 21 SW 1008,8 47 0,0
15.11.2017 11:00:00 5,1 1,9 32 18 45 24 WSW 1009,4 40 0,0
15.11.2017 10:00:00 3,7 1,1 32 17 42 23 WSW 1009,7 41 0,0
15.11.2017 09:00:00 2,9 0,8 24 13 33 18 SW 1009,4 42 0,0
15.11.2017 08:00:00 2,7 0,8 23 12 37 20 WSW 1009,5 50 0,0
15.11.2017 07:00:00 2,9 0,8 32 18 40 22 WSW 1009,5 44 0,0
15.11.2017 06:00:00 3,0 0,4 31 17 45 25 WSW 1009,3 50 0,0
15.11.2017 05:00:00 3,0 0,6 34 19 43 23 WSW 1009,3 45 0,0
15.11.2017 04:00:00 2,8 0,5 37 20 49 27 WSW 1009,1 36 0,0
15.11.2017 03:00:00 2,7 0,4 34 19 44 24 W 1008,9 42 0,0
15.11.2017 02:00:00 2,7 0,3 31 17 43 23 W 1008,9 50 0,0
15.11.2017 01:00:00 3,1 0,5 34 19 46 25 W 1008,6 50 0,0
15.11.2017 00:00:00 3,2 1,1 29 16 43 23 WSW 1008,7 44 0,0
14.11.2017 23:00:00 3,1 1,3 31 17 38 21 WSW 1008,4 38 0,0
14.11.2017 22:00:00 2,9 1,1 32 17 40 22 W 1008,6 50 0,0
14.11.2017 21:00:00 3,0 1,0 30 16 43 23 WSW 1008,6 49 0,0
14.11.2017 20:00:00 2,8 0,7 32 17 41 22 WSW 1008,3 50 0,0
14.11.2017 19:00:00 3,2 1,2 28 15 42 23 WSW 1008,5 50 0,0
14.11.2017 18:00:00 4,0 1,9 27 15 43 23 SW 1008,2 12 1,3
14.11.2017 17:00:00 5,1 -0,7 22 12 31 17 SSW 1008,4 41 0,0
14.11.2017 16:00:00 4,2 -0,4 21 11 29 16 SSW 1008,8 49 0,0
14.11.2017 15:00:00 3,8 -1,6 25 14 39 21 SW 1009,2 48 0,0
14.11.2017 14:00:00 3,4 -1,7 20 11 30 16 WSW 1009,3 48 0,0
14.11.2017 13:00:00 3,1 -2,2 23 12 31 17 WSW 1009,5 43 0,0
14.11.2017 12:00:00 2,9 -1,6 24 13 31 17 W 1009,4 42 0,0
14.11.2017 11:00:00 2,7 -1,3 26 14 31 17 W 1009,4 39 0,0
14.11.2017 10:00:00 2,2 -1,2 21 11 32 17 W 1009,6 35 0,0
14.11.2017 09:00:00 1,7 -0,7 23 13 34 18 WSW 1009,5 42 0,0
14.11.2017 08:00:00 1,7 -1,4 26 14 34 18 W 1009,4 46 0,0
14.11.2017 07:00:00 1,2 -1,5 24 13 32 18 W 1009,4 48 0,0
14.11.2017 06:00:00 1,4 -1,3 24 13 34 18 W 1009,3 41 0,0
14.11.2017 05:00:00 1,5 -1,2 26 14 35 19 W 1009,6 47 0,0
14.11.2017 04:00:00 1,8 -0,9 30 16 36 19 W 1009,2 50 0,0
14.11.2017 03:00:00 1,9 -0,8 26 14 32 17 W 1009,3 47 0,0
14.11.2017 02:00:00 2,2 -0,4 26 14 34 19 W 1009,2 50 0,0
14.11.2017 01:00:00 2,5 -0,6 27 15 36 19 W 1009,3 48 0,0
14.11.2017 00:00:00 2,6 -0,2 27 15 33 18 WNW 1009,1 50 0,0
13.11.2017 23:00:00 2,8 -0,1 24 13 31 17 WNW 1009,2 46 0,0
13.11.2017 22:00:00 2,7 -0,6 26 14 36 19 WNW 1009,2 50 0,0
13.11.2017 21:00:00 2,9 -0,6 31 17 39 21 WNW 1009,3 48 0,0
13.11.2017 20:00:00 3,1 -0,2 29 16 35 19 WNW 1009,0 40 0,0
13.11.2017 19:00:00 3,4 -0,1 28 15 39 21 WNW 1008,9 47 0,0
13.11.2017 18:00:00 3,5 0,2 31 17 43 23 WNW 1008,5 50 0,0
13.11.2017 17:00:00 3,3 0,7 34 18 43 23 WNW 1008,2 50 0,0
13.11.2017 16:00:00 3,6 0,6 31 17 39 21 WNW 1007,7 50 0,0
13.11.2017 15:00:00 3,4 0,6 30 16 40 22 WNW 1007,3 50 0,0
13.11.2017 14:00:00 3,7 0,0 30 16 36 19 WNW 1006,9 49 0,0
13.11.2017 13:00:00 3,7 0,6 24 13 35 19 WNW 1006,7 50 0,0
13.11.2017 12:00:00 3,7 0,7 27 14 36 19 WNW 1006,6 50 0,0
13.11.2017 11:00:00 3,7 0,7 27 15 40 22 WNW 1006,0 43 0,0
13.11.2017 10:00:00 3,8 1,5 29 16 44 24 WNW 1005,2 44 0,0
13.11.2017 09:00:00 3,1 1,3 36 20 44 24 WNW 1004,7 40 0,0
13.11.2017 08:00:00 2,7 1,2 35 19 45 24 WNW 1003,9 45 0,0
13.11.2017 07:00:00 3,2 1,6 33 18 41 22 WNW 1002,8 40 0,0
13.11.2017 06:00:00 2,9 1,4 30 16 42 23 WNW 1001,8 50 0,0
13.11.2017 05:00:00 2,9 1,6 31 17 43 23 WNW 1001,0 21 0,0
13.11.2017 04:00:00 2,5 1,2 31 17 42 23 WNW 1000,1 18 0,0
13.11.2017 03:00:00 2,4 0,6 33 18 44 24 WNW 999,4 50 0,0
13.11.2017 02:00:00 2,1 0,3 30 16 38 20 WNW 998,7 44 0,0
13.11.2017 01:00:00 1,8 -0,5 31 17 38 20 WNW 998,0 50 0,0
13.11.2017 00:00:00 1,8 -0,6 29 16 39 21 WNW 997,1 47 0,0
12.11.2017 23:00:00 1,3 -0,8 26 14 39 21 W 996,6 50 0,0
12.11.2017 22:00:00 2,0 -0,4 28 15 37 20 WNW 995,9 40 0,0
12.11.2017 21:00:00 2,1 -0,5 24 13 37 20 WNW 995,4 50 0,0
12.11.2017 20:00:00 2,2 -0,1 24 13 36 19 W 994,6 50 0,0
12.11.2017 19:00:00 2,5 -0,3 26 14 38 20 W 993,8 50 0,0
12.11.2017 18:00:00 2,8 -0,1 26 14 36 19 W 993,1 40 0,0
12.11.2017 17:00:00 2,8 -0,1 29 15 42 23 WNW 992,4 48 0,0
12.11.2017 16:00:00 3,0 0,1 29 16 44 24 WNW 991,7 50 0,0
12.11.2017 15:00:00 3,2 0,4 27 15 43 23 WNW 991,2 49 0,0
12.11.2017 14:00:00 3,7 0,6 36 19 46 25 WNW 990,5 46 0,0
12.11.2017 13:00:00 3,6 0,6 36 19 46 25 W 989,8 50 0,0
12.11.2017 12:00:00 3,4 0,8 37 20 51 28 W 989,3 43 0,0
12.11.2017 11:00:00 3,7 1,2 41 22 55 30 W 988,5 47 0,0
12.11.2017 10:00:00 3,7 1,4 42 23 56 31 W 987,8 30 0,0
12.11.2017 09:00:00 3,8 1,7 49 27 60 32 W 986,9 50 0,0
12.11.2017 08:00:00 4,2 2,5 46 25 63 34 W 986,5 45 0,0
12.11.2017 07:00:00 4,5 3,0 51 28 61 33 WNW 985,5 13 0,0
12.11.2017 06:00:00 4,8 3,5 48 26 63 34 WNW 984,7 14 0,2
12.11.2017 05:00:00 4,8 3,5 46 25 61 33 WNW 984,1 10 0,6
12.11.2017 04:00:00 4,7 3,4 46 25 59 32 WNW 983,4 12 0,2
12.11.2017 03:00:00 4,3 3,0 42 23 54 29 WNW 983,0 9 0,2
12.11.2017 02:00:00 4,1 2,6 35 19 45 24 WNW 982,7 12 0,0
12.11.2017 01:00:00 4,1 2,1 26 14 43 23 WNW 982,6 36 0,0
12.11.2017 00:00:00 4,4 2,9 37 20 48 26 WNW 982,6 15 0,0
11.11.2017 23:00:00 5,1 3,4 38 21 46 25 WNW 982,2 38 0,1

tt = Température de l'air
td = dewpoint
ff = Vitesse du vent
fx = gusts
dd = Direction du vent
ppp = reduced air pressure
vv = visibility
rr = Quantités de précipitations

stations d'obs. à proximité